Time,TemperatureF,DewpointF,PressureIn,WindDirection,WindDirectionDegrees,WindSpeedMPH,WindSpeedGustMPH,Humidity,HourlyPrecipIn,Conditions,Clouds,dailyrainin,SoftwareType,DateUTC
2013-06-16 00:00:00,72.8,63.2,29.88,South,184,1.0,4.0,72,0.00,,,0.00,Wunderground v.1.15,2013-06-16 04:00:00,
2013-06-16 00:05:00,72.9,63.3,29.88,SSE,156,2.0,4.0,72,0.00,,,0.00,Wunderground v.1.15,2013-06-16 04:05:00,
2013-06-16 00:10:00,73.0,63.4,29.88,South,182,3.0,3.0,72,0.00,,,0.00,Wunderground v.1.15,2013-06-16 04:10:00,
2013-06-16 00:15:00,73.0,63.4,29.88,South,175,3.0,3.0,72,0.00,,,0.00,Wunderground v.1.15,2013-06-16 04:15:00,
2013-06-16 00:20:00,73.0,63.4,29.88,South,183,3.0,3.0,72,0.00,,,0.00,Wunderground v.1.15,2013-06-16 04:20:00,
2013-06-16 00:25:00,72.9,63.7,29.88,SSW,192,2.0,3.0,73,0.00,,,0.00,Wunderground v.1.15,2013-06-16 04:25:00,
2013-06-16 00:30:00,72.8,63.6,29.87,SSE,163,2.0,3.0,73,0.00,,,0.00,Wunderground v.1.15,2013-06-16 04:30:00,
2013-06-16 00:40:00,72.7,63.5,29.87,South,169,3.0,5.0,73,0.00,,,0.00,Wunderground v.1.15,2013-06-16 04:40:00,
2013-06-16 00:45:00,72.6,63.8,29.87,South,170,3.0,6.0,74,0.00,,,0.00,Wunderground v.1.15,2013-06-16 04:45:00,
2013-06-16 00:50:00,72.5,63.7,29.87,South,171,3.0,6.0,74,0.00,,,0.00,Wunderground v.1.15,2013-06-16 04:50:00,
2013-06-16 01:00:00,72.2,63.4,29.87,SSE,164,3.0,7.0,74,0.00,,,0.00,Wunderground v.1.15,2013-06-16 05:00:00,
2013-06-16 01:10:00,71.9,63.5,29.86,South,183,3.0,3.0,75,0.00,,,0.00,Wunderground v.1.15,2013-06-16 05:10:00,
2013-06-16 01:15:00,71.7,63.7,29.86,SSE,165,2.0,3.0,76,0.00,,,0.00,Wunderground v.1.15,2013-06-16 05:15:00,
2013-06-16 01:25:00,71.4,63.4,29.86,SSE,147,2.0,3.0,76,0.00,,,0.00,Wunderground v.1.15,2013-06-16 05:25:00,
2013-06-16 01:30:00,71.3,63.3,29.86,SSE,158,2.0,2.0,76,0.00,,,0.00,Wunderground v.1.15,2013-06-16 05:30:00,
2013-06-16 01:35:00,71.2,63.6,29.86,South,178,2.0,2.0,77,0.00,,,0.00,Wunderground v.1.15,2013-06-16 05:35:00,
2013-06-16 01:45:00,71.2,63.6,29.86,SSE,168,2.0,2.0,77,0.00,,,0.00,Wunderground v.1.15,2013-06-16 05:45:00,
2013-06-16 01:50:00,71.2,63.6,29.86,South,187,1.0,2.0,77,0.00,,,0.00,Wunderground v.1.15,2013-06-16 05:50:00,
2013-06-16 01:55:00,71.1,63.5,29.86,SSW,206,2.0,2.0,77,0.00,,,0.00,Wunderground v.1.15,2013-06-16 05:55:00,
2013-06-16 02:05:00,71.0,63.4,29.86,SSW,192,1.0,2.0,77,0.00,,,0.00,Wunderground v.1.15,2013-06-16 06:05:00,
2013-06-16 02:10:00,71.0,63.4,29.86,South,186,2.0,4.0,77,0.00,,,0.00,Wunderground v.1.15,2013-06-16 06:10:00,
2013-06-16 02:15:00,70.9,63.3,29.85,South,186,1.0,4.0,77,0.00,,,0.00,Wunderground v.1.15,2013-06-16 06:15:00,
2013-06-16 02:20:00,70.8,63.2,29.85,SSW,204,1.0,1.0,77,0.00,,,0.00,Wunderground v.1.15,2013-06-16 06:20:00,
2013-06-16 02:30:00,70.6,63.4,29.85,South,181,1.0,1.0,78,0.00,,,0.00,Wunderground v.1.15,2013-06-16 06:30:00,
2013-06-16 02:35:00,70.4,63.2,29.85,South,171,1.0,3.0,78,0.00,,,0.00,Wunderground v.1.15,2013-06-16 06:35:00,
2013-06-16 02:45:00,70.1,63.3,29.85,SSW,202,1.0,2.0,79,0.00,,,0.00,Wunderground v.1.15,2013-06-16 06:45:00,
2013-06-16 02:50:00,70.0,63.2,29.85,South,175,1.0,3.0,79,0.00,,,0.00,Wunderground v.1.15,2013-06-16 06:50:00,
2013-06-16 02:55:00,69.8,63.0,29.85,South,178,1.0,3.0,79,0.00,,,0.00,Wunderground v.1.15,2013-06-16 06:55:00,
2013-06-16 03:05:00,69.5,63.1,29.84,South,186,1.0,1.0,80,0.00,,,0.00,Wunderground v.1.15,2013-06-16 07:05:00,
2013-06-16 03:10:00,69.4,63.0,29.84,SSW,207,1.0,1.0,80,0.00,,,0.00,Wunderground v.1.15,2013-06-16 07:10:00,
2013-06-16 03:15:00,69.3,62.9,29.84,South,177,1.0,1.0,80,0.00,,,0.00,Wunderground v.1.15,2013-06-16 07:15:00,
2013-06-16 03:25:00,69.1,63.0,29.84,SW,228,1.0,4.0,81,0.00,,,0.00,Wunderground v.1.15,2013-06-16 07:25:00,
2013-06-16 03:30:00,69.2,63.1,29.84,SW,214,2.0,2.0,81,0.00,,,0.00,Wunderground v.1.15,2013-06-16 07:30:00,
2013-06-16 03:35:00,69.2,63.1,29.83,South,187,2.0,2.0,81,0.00,,,0.00,Wunderground v.1.15,2013-06-16 07:35:00,
2013-06-16 03:45:00,69.3,63.2,29.83,SW,216,1.0,2.0,81,0.00,,,0.00,Wunderground v.1.15,2013-06-16 07:45:00,
2013-06-16 03:55:00,69.5,63.4,29.83,SW,225,2.0,2.0,81,0.00,,,0.00,Wunderground v.1.15,2013-06-16 07:55:00,
2013-06-16 04:00:00,69.6,63.2,29.83,South,169,2.0,2.0,80,0.00,,,0.00,Wunderground v.1.15,2013-06-16 08:00:00,
2013-06-16 04:10:00,69.8,63.3,29.83,SSW,194,2.0,2.0,80,0.00,,,0.00,Wunderground v.1.15,2013-06-16 08:10:00,
2013-06-16 04:20:00,70.0,63.5,29.83,SSW,207,2.0,2.0,80,0.00,,,0.00,Wunderground v.1.15,2013-06-16 08:20:00,
2013-06-16 04:25:00,70.0,63.5,29.83,South,170,2.0,2.0,80,0.00,,,0.00,Wunderground v.1.15,2013-06-16 08:25:00,
2013-06-16 04:30:00,70.1,63.3,29.82,SW,217,1.0,1.0,79,0.00,,,0.00,Wunderground v.1.15,2013-06-16 08:30:00,
2013-06-16 04:40:00,70.4,63.6,29.83,WSW,252,2.0,3.0,79,0.00,,,0.00,Wunderground v.1.15,2013-06-16 08:40:00,
2013-06-16 04:50:00,70.8,63.6,29.83,SW,231,3.0,3.0,78,0.00,,,0.00,Wunderground v.1.15,2013-06-16 08:50:00,
2013-06-16 04:55:00,70.7,64.2,29.83,SW,224,3.0,3.0,80,0.00,,,0.01,Wunderground v.1.15,2013-06-16 08:55:00,
2013-06-16 05:00:00,70.2,64.1,29.83,SW,223,4.0,4.0,81,0.00,,,0.01,Wunderground v.1.15,2013-06-16 09:00:00,
2013-06-16 05:10:00,69.4,64.0,29.83,SW,222,3.0,3.0,83,0.00,,,0.01,Wunderground v.1.15,2013-06-16 09:10:00,
2013-06-16 05:20:00,69.1,64.1,29.84,SW,221,3.0,3.0,84,0.00,,,0.01,Wunderground v.1.15,2013-06-16 09:20:00,
2013-06-16 05:30:00,69.2,64.2,29.85,WSW,240,3.0,3.0,84,0.00,,,0.01,Wunderground v.1.15,2013-06-16 09:30:00,
2013-06-16 05:35:00,69.3,63.9,29.85,West,268,3.0,3.0,83,0.00,,,0.01,Wunderground v.1.15,2013-06-16 09:35:00,
2013-06-16 05:40:00,69.5,64.1,29.84,West,267,3.0,3.0,83,0.00,,,0.01,Wunderground v.1.15,2013-06-16 09:40:00,
2013-06-16 05:50:00,69.8,64.1,29.84,WSW,244,2.0,2.0,82,0.00,,,0.01,Wunderground v.1.15,2013-06-16 09:50:00,
2013-06-16 05:55:00,69.9,64.2,29.84,West,263,2.0,2.0,82,0.00,,,0.01,Wunderground v.1.15,2013-06-16 09:55:00,
2013-06-16 06:00:00,70.2,64.1,29.84,West,274,2.0,4.0,81,0.00,,,0.01,Wunderground v.1.15,2013-06-16 10:00:00,
2013-06-16 06:10:00,70.4,64.3,29.84,West,267,1.0,1.0,81,0.00,,,0.01,Wunderground v.1.15,2013-06-16 10:10:00,
2013-06-16 06:20:00,70.3,64.2,29.84,West,268,0.0,1.0,81,0.00,,,0.01,Wunderground v.1.15,2013-06-16 10:20:00,
2013-06-16 06:25:00,70.3,64.2,29.84,West,269,1.0,1.0,81,0.00,,,0.01,Wunderground v.1.15,2013-06-16 10:25:00,
2013-06-16 06:35:00,70.2,64.1,29.84,West,269,0.0,1.0,81,0.00,,,0.01,Wunderground v.1.15,2013-06-16 10:35:00,
2013-06-16 06:40:00,70.1,64.3,29.85,SW,225,1.0,2.0,82,0.00,,,0.01,Wunderground v.1.15,2013-06-16 10:40:00,
2013-06-16 06:50:00,69.9,64.8,29.85,West,270,1.0,1.0,84,0.00,,,0.02,Wunderground v.1.15,2013-06-16 10:50:00,
2013-06-16 06:55:00,69.7,64.6,29.84,West,270,0.0,1.0,84,0.00,,,0.02,Wunderground v.1.15,2013-06-16 10:55:00,
2013-06-16 07:05:00,69.2,64.5,29.83,West,271,0.0,1.0,85,0.00,,,0.02,Wunderground v.1.15,2013-06-16 11:05:00,
2013-06-16 07:15:00,68.8,64.4,29.84,West,271,0.0,1.0,86,0.00,,,0.02,Wunderground v.1.15,2013-06-16 11:15:00,
2013-06-16 07:20:00,68.7,64.7,29.85,WSW,244,0.0,0.0,87,0.00,,,0.02,Wunderground v.1.15,2013-06-16 11:20:00,
2013-06-16 07:30:00,68.6,64.6,29.86,WSW,237,1.0,1.0,87,0.00,,,0.02,Wunderground v.1.15,2013-06-16 11:30:00,
2013-06-16 07:40:00,68.8,65.1,29.85,WSW,237,0.0,0.0,88,0.00,,,0.02,Wunderground v.1.15,2013-06-16 11:40:00,
2013-06-16 07:45:00,68.8,65.1,29.85,WSW,238,0.0,0.0,88,0.00,,,0.02,Wunderground v.1.15,2013-06-16 11:45:00,
2013-06-16 07:55:00,68.9,65.2,29.85,WSW,238,0.0,0.0,88,0.00,,,0.02,Wunderground v.1.15,2013-06-16 11:55:00,
2013-06-16 08:00:00,69.0,65.3,29.86,WSW,238,0.0,0.0,88,0.00,,,0.02,Wunderground v.1.15,2013-06-16 12:00:00,
2013-06-16 08:10:00,69.2,65.8,29.86,WSW,238,0.0,1.0,89,0.00,,,0.02,Wunderground v.1.15,2013-06-16 12:10:00,
2013-06-16 08:20:00,69.2,65.8,29.86,SW,221,0.0,1.0,89,0.00,,,0.02,Wunderground v.1.15,2013-06-16 12:20:00,
2013-06-16 08:30:00,69.1,65.7,29.86,SSW,205,1.0,2.0,89,0.00,,,0.03,Wunderground v.1.15,2013-06-16 12:30:00,
2013-06-16 08:35:00,69.0,65.6,29.86,SW,216,1.0,6.0,89,0.00,,,0.03,Wunderground v.1.15,2013-06-16 12:35:00,
2013-06-16 08:45:00,68.8,65.4,29.86,SW,215,1.0,2.0,89,0.00,,,0.03,Wunderground v.1.15,2013-06-16 12:45:00,
2013-06-16 08:50:00,68.8,65.4,29.87,SW,223,2.0,2.0,89,0.00,,,0.03,Wunderground v.1.15,2013-06-16 12:50:00,
2013-06-16 09:00:00,68.7,65.3,29.87,WSW,253,2.0,3.0,89,0.00,,,0.03,Wunderground v.1.15,2013-06-16 13:00:00,
2013-06-16 09:10:00,68.8,64.8,29.87,WSW,241,4.0,4.0,87,0.00,,,0.04,Wunderground v.1.15,2013-06-16 13:10:00,
2013-06-16 09:15:00,68.8,64.4,29.87,SW,225,4.0,4.0,86,0.00,,,0.04,Wunderground v.1.15,2013-06-16 13:15:00,
2013-06-16 09:25:00,68.7,64.7,29.87,SW,230,3.0,7.0,87,0.00,,,0.04,Wunderground v.1.15,2013-06-16 13:25:00,
2013-06-16 09:30:00,68.6,64.6,29.87,WSW,258,4.0,4.0,87,0.00,,,0.04,Wunderground v.1.15,2013-06-16 13:30:00,
2013-06-16 09:40:00,68.4,64.7,29.86,SW,219,4.0,4.0,88,0.00,,,0.04,Wunderground v.1.15,2013-06-16 13:40:00,
2013-06-16 09:45:00,68.3,64.6,29.86,SW,229,3.0,4.0,88,0.00,,,0.04,Wunderground v.1.15,2013-06-16 13:45:00,
2013-06-16 09:55:00,68.1,64.7,29.86,SSW,213,4.0,4.0,89,0.00,,,0.04,Wunderground v.1.15,2013-06-16 13:55:00,
2013-06-16 10:05:00,68.0,65.0,29.86,SW,231,4.0,7.0,90,0.00,,,0.04,Wunderground v.1.15,2013-06-16 14:05:00,
2013-06-16 10:10:00,68.0,64.6,29.86,SSW,209,5.0,5.0,89,0.00,,,0.04,Wunderground v.1.15,2013-06-16 14:10:00,
2013-06-16 10:15:00,68.1,64.7,29.86,South,180,5.0,5.0,89,0.00,,,0.04,Wunderground v.1.15,2013-06-16 14:15:00,
2013-06-16 10:25:00,68.6,65.5,29.86,SW,230,4.0,4.0,90,0.00,,,0.04,Wunderground v.1.15,2013-06-16 14:25:00,
2013-06-16 10:35:00,69.3,65.9,29.86,SSW,199,4.0,6.0,89,0.00,,,0.04,Wunderground v.1.15,2013-06-16 14:35:00,
2013-06-16 10:40:00,69.7,66.0,29.86,SW,230,5.0,5.0,88,0.00,,,0.04,Wunderground v.1.15,2013-06-16 14:40:00,
2013-06-16 10:45:00,70.0,66.0,29.86,WNW,286,6.0,7.0,87,0.00,,,0.04,Wunderground v.1.15,2013-06-16 14:45:00,
2013-06-16 10:55:00,70.6,66.2,29.87,SW,220,5.0,6.0,86,0.00,,,0.04,Wunderground v.1.15,2013-06-16 14:55:00,
2013-06-16 11:00:00,70.8,66.1,29.86,SSW,213,4.0,5.0,85,0.00,,,0.04,Wunderground v.1.15,2013-06-16 15:00:00,
2013-06-16 11:10:00,70.8,65.7,29.86,SSW,213,5.0,7.0,84,0.00,,,0.04,Wunderground v.1.15,2013-06-16 15:10:00,
2013-06-16 11:20:00,70.8,65.7,29.86,SSW,197,4.0,4.0,84,0.00,,,0.04,Wunderground v.1.15,2013-06-16 15:20:00,
2013-06-16 11:25:00,70.8,65.7,29.86,WSW,244,5.0,5.0,84,0.00,,,0.04,Wunderground v.1.15,2013-06-16 15:25:00,
2013-06-16 11:35:00,70.6,65.5,29.86,WSW,248,4.0,7.0,84,0.00,,,0.04,Wunderground v.1.15,2013-06-16 15:35:00,
2013-06-16 11:45:00,70.3,65.2,29.86,SSW,207,5.0,5.0,84,0.00,,,0.04,Wunderground v.1.15,2013-06-16 15:45:00,
2013-06-16 11:50:00,70.2,65.5,29.86,SW,227,4.0,5.0,85,0.00,,,0.04,Wunderground v.1.15,2013-06-16 15:50:00,
2013-06-16 11:55:00,70.1,65.4,29.86,SW,217,4.0,5.0,85,0.00,,,0.04,Wunderground v.1.15,2013-06-16 15:55:00,
2013-06-16 12:05:00,70.2,65.8,29.86,SSW,209,4.0,6.0,86,0.00,,,0.04,Wunderground v.1.15,2013-06-16 16:05:00,
2013-06-16 12:10:00,70.0,65.6,29.86,WSW,243,5.0,9.0,86,0.00,,,0.05,Wunderground v.1.15,2013-06-16 16:10:00,
2013-06-16 12:15:00,69.8,65.8,29.86,SSW,209,5.0,9.0,87,0.00,,,0.05,Wunderground v.1.15,2013-06-16 16:15:00,
2013-06-16 12:25:00,69.7,65.7,29.87,WSW,248,4.0,5.0,87,0.00,,,0.05,Wunderground v.1.15,2013-06-16 16:25:00,
2013-06-16 12:30:00,69.7,65.7,29.87,SW,229,4.0,4.0,87,0.00,,,0.05,Wunderground v.1.15,2013-06-16 16:30:00,
2013-06-16 12:40:00,69.8,65.8,29.86,SSW,192,4.0,4.0,87,0.00,,,0.05,Wunderground v.1.15,2013-06-16 16:40:00,
2013-06-16 12:45:00,69.9,65.9,29.86,West,260,4.0,4.0,87,0.00,,,0.05,Wunderground v.1.15,2013-06-16 16:45:00,
2013-06-16 12:55:00,70.1,65.7,29.86,SW,231,4.0,6.0,86,0.00,,,0.05,Wunderground v.1.15,2013-06-16 16:55:00,
2013-06-16 13:00:00,70.2,65.8,29.85,SSW,207,3.0,6.0,86,0.00,,,0.05,Wunderground v.1.15,2013-06-16 17:00:00,
2013-06-16 13:10:00,70.7,66.3,29.86,WSW,252,4.0,4.0,86,0.00,,,0.05,Wunderground v.1.15,2013-06-16 17:10:00,
2013-06-16 13:20:00,71.1,65.7,29.86,SW,229,4.0,5.0,83,0.00,,,0.05,Wunderground v.1.15,2013-06-16 17:20:00,
2013-06-16 13:25:00,71.3,65.9,29.85,WSW,245,5.0,5.0,83,0.00,,,0.05,Wunderground v.1.15,2013-06-16 17:25:00,
2013-06-16 13:35:00,71.7,65.6,29.85,SSW,204,4.0,5.0,81,0.00,,,0.05,Wunderground v.1.15,2013-06-16 17:35:00,
2013-06-16 13:40:00,71.8,65.7,29.85,WSW,238,4.0,7.0,81,0.00,,,0.05,Wunderground v.1.15,2013-06-16 17:40:00,
2013-06-16 13:45:00,71.8,65.7,29.85,SW,220,4.0,7.0,81,0.00,,,0.05,Wunderground v.1.15,2013-06-16 17:45:00,
2013-06-16 13:55:00,72.0,65.8,29.86,SW,219,5.0,7.0,81,0.00,,,0.05,Wunderground v.1.15,2013-06-16 17:55:00,
2013-06-16 14:00:00,72.2,66.0,29.86,South,188,5.0,5.0,81,0.00,,,0.05,Wunderground v.1.15,2013-06-16 18:00:00,
2013-06-16 14:10:00,73.1,66.6,29.86,SSW,205,4.0,5.0,80,0.00,,,0.05,Wunderground v.1.15,2013-06-16 18:10:00,
2013-06-16 14:20:00,73.6,65.9,29.85,SSW,203,7.0,7.0,77,0.00,,,0.05,Wunderground v.1.15,2013-06-16 18:20:00,
2013-06-16 14:25:00,73.7,66.4,29.85,SW,234,7.0,7.0,78,0.00,,,0.05,Wunderground v.1.15,2013-06-16 18:25:00,
2013-06-16 14:35:00,73.5,66.2,29.85,SSW,213,5.0,6.0,78,0.00,,,0.05,Wunderground v.1.15,2013-06-16 18:35:00,
2013-06-16 14:40:00,74.2,68.0,29.85,WSW,248,5.0,6.0,81,0.00,,,0.05,Wunderground v.1.15,2013-06-16 18:40:00,
2013-06-16 14:50:00,76.0,68.3,29.85,WSW,242,6.0,6.0,77,0.00,,,0.05,Wunderground v.1.15,2013-06-16 18:50:00,
2013-06-16 14:55:00,76.4,68.7,29.85,SW,229,5.0,9.0,77,0.00,,,0.05,Wunderground v.1.15,2013-06-16 18:55:00,
2013-06-16 15:00:00,76.8,67.9,29.85,WSW,238,6.0,6.0,74,0.00,,,0.05,Wunderground v.1.15,2013-06-16 19:00:00,
2013-06-16 15:10:00,76.6,67.7,29.85,SW,234,7.0,8.0,74,0.00,,,0.05,Wunderground v.1.15,2013-06-16 19:10:00,
2013-06-16 15:20:00,76.6,68.1,29.84,SSE,157,6.0,8.0,75,0.00,,,0.05,Wunderground v.1.15,2013-06-16 19:20:00,
2013-06-16 15:25:00,77.0,67.3,29.84,WSW,247,6.0,8.0,72,0.00,,,0.05,Wunderground v.1.15,2013-06-16 19:25:00,
2013-06-16 15:35:00,77.3,67.2,29.85,SW,227,6.0,6.0,71,0.00,,,0.05,Wunderground v.1.15,2013-06-16 19:35:00,
2013-06-16 15:45:00,77.4,68.1,29.85,WSW,251,6.0,8.0,73,0.00,,,0.05,Wunderground v.1.15,2013-06-16 19:45:00,
2013-06-16 15:50:00,77.5,67.8,29.85,SSE,166,6.0,6.0,72,0.00,,,0.05,Wunderground v.1.15,2013-06-16 19:50:00,
2013-06-16 16:00:00,77.2,67.5,29.85,SW,222,7.0,7.0,72,0.00,,,0.05,Wunderground v.1.15,2013-06-16 20:00:00,
2013-06-16 16:10:00,76.7,67.0,29.85,SW,227,6.0,6.0,72,0.00,,,0.05,Wunderground v.1.15,2013-06-16 20:10:00,
2013-06-16 16:15:00,76.8,67.1,29.85,SW,225,6.0,6.0,72,0.00,,,0.05,Wunderground v.1.15,2013-06-16 20:15:00,
2013-06-16 16:20:00,76.7,67.0,29.85,SW,236,6.0,6.0,72,0.00,,,0.05,Wunderground v.1.15,2013-06-16 20:20:00,
2013-06-16 16:30:00,76.7,67.4,29.84,SW,234,4.0,6.0,73,0.00,,,0.05,Wunderground v.1.15,2013-06-16 20:30:00,
2013-06-16 16:40:00,77.2,67.5,29.84,SSW,194,5.0,5.0,72,0.00,,,0.05,Wunderground v.1.15,2013-06-16 20:40:00,
2013-06-16 16:50:00,77.9,67.3,29.84,SSW,213,5.0,5.0,70,0.00,,,0.05,Wunderground v.1.15,2013-06-16 20:50:00,
2013-06-16 16:55:00,77.7,67.1,29.84,SW,234,5.0,5.0,70,0.00,,,0.05,Wunderground v.1.15,2013-06-16 20:55:00,
2013-06-16 17:00:00,77.8,68.0,29.84,WSW,248,4.0,4.0,72,0.00,,,0.05,Wunderground v.1.15,2013-06-16 21:00:00,
2013-06-16 17:10:00,77.7,67.5,29.84,WSW,237,5.0,5.0,71,0.00,,,0.05,Wunderground v.1.15,2013-06-16 21:10:00,
2013-06-16 17:15:00,77.8,67.6,29.84,WSW,240,5.0,5.0,71,0.00,,,0.05,Wunderground v.1.15,2013-06-16 21:15:00,
2013-06-16 17:20:00,77.7,67.5,29.83,West,267,4.0,5.0,71,0.00,,,0.05,Wunderground v.1.15,2013-06-16 21:20:00,
2013-06-16 17:25:00,77.6,67.4,29.83,WSW,244,4.0,5.0,71,0.00,,,0.05,Wunderground v.1.15,2013-06-16 21:25:00,
2013-06-16 17:35:00,77.3,67.6,29.83,WSW,243,4.0,4.0,72,0.00,,,0.05,Wunderground v.1.15,2013-06-16 21:35:00,
2013-06-16 17:40:00,77.2,67.5,29.83,West,263,4.0,5.0,72,0.00,,,0.05,Wunderground v.1.15,2013-06-16 21:40:00,
2013-06-16 17:50:00,76.9,68.0,29.83,SW,234,4.0,4.0,74,0.00,,,0.05,Wunderground v.1.15,2013-06-16 21:50:00,
2013-06-16 17:55:00,77.0,67.7,29.83,South,182,4.0,4.0,73,0.00,,,0.05,Wunderground v.1.15,2013-06-16 21:55:00,
2013-06-16 18:05:00,77.0,67.7,29.83,SSW,205,4.0,4.0,73,0.00,,,0.05,Wunderground v.1.15,2013-06-16 22:05:00,
2013-06-16 18:15:00,76.8,67.1,29.84,South,190,4.0,6.0,72,0.00,,,0.05,Wunderground v.1.15,2013-06-16 22:15:00,
2013-06-16 18:20:00,76.7,67.4,29.83,SSW,209,5.0,5.0,73,0.00,,,0.05,Wunderground v.1.15,2013-06-16 22:20:00,
2013-06-16 18:30:00,76.6,67.3,29.83,SW,215,4.0,4.0,73,0.00,,,0.05,Wunderground v.1.15,2013-06-16 22:30:00,
2013-06-16 18:35:00,76.6,67.3,29.83,SW,218,4.0,4.0,73,0.00,,,0.05,Wunderground v.1.15,2013-06-16 22:35:00,
2013-06-16 18:45:00,76.4,67.1,29.83,WSW,246,5.0,5.0,73,0.00,,,0.05,Wunderground v.1.15,2013-06-16 22:45:00,
2013-06-16 18:50:00,76.4,67.5,29.83,WSW,242,4.0,5.0,74,0.00,,,0.05,Wunderground v.1.15,2013-06-16 22:50:00,
2013-06-16 19:00:00,76.3,67.4,29.83,WSW,238,4.0,4.0,74,0.00,,,0.05,Wunderground v.1.15,2013-06-16 23:00:00,
2013-06-16 19:10:00,76.1,67.6,29.83,SW,215,4.0,4.0,75,0.00,,,0.05,Wunderground v.1.15,2013-06-16 23:10:00,
2013-06-16 19:15:00,76.1,67.6,29.83,SW,226,4.0,4.0,75,0.00,,,0.05,Wunderground v.1.15,2013-06-16 23:15:00,
2013-06-16 19:25:00,76.0,67.5,29.83,SW,225,3.0,3.0,75,0.00,,,0.05,Wunderground v.1.15,2013-06-16 23:25:00,
2013-06-16 19:30:00,76.0,67.9,29.83,SW,227,3.0,3.0,76,0.00,,,0.05,Wunderground v.1.15,2013-06-16 23:30:00,
2013-06-16 19:40:00,75.7,67.6,29.84,SSW,211,4.0,4.0,76,0.00,,,0.05,Wunderground v.1.15,2013-06-16 23:40:00,
2013-06-16 19:50:00,75.5,67.8,29.84,WSW,238,3.0,3.0,77,0.00,,,0.05,Wunderground v.1.15,2013-06-16 23:50:00,
2013-06-16 19:55:00,75.4,67.7,29.84,SSW,198,2.0,3.0,77,0.00,,,0.05,Wunderground v.1.15,2013-06-16 23:55:00,
2013-06-16 20:05:00,75.2,67.5,29.84,SW,234,3.0,4.0,77,0.00,,,0.05,Wunderground v.1.15,2013-06-17 00:05:00,
2013-06-16 20:15:00,74.9,67.2,29.83,SW,219,3.0,4.0,77,0.00,,,0.05,Wunderground v.1.15,2013-06-17 00:15:00,
2013-06-16 20:20:00,74.8,67.1,29.83,SW,229,3.0,6.0,77,0.00,,,0.05,Wunderground v.1.15,2013-06-17 00:20:00,
2013-06-16 20:30:00,74.6,66.9,29.83,SW,214,3.0,3.0,77,0.00,,,0.05,Wunderground v.1.15,2013-06-17 00:30:00,
2013-06-16 20:40:00,74.3,67.0,29.83,SW,214,2.0,3.0,78,0.00,,,0.05,Wunderground v.1.15,2013-06-17 00:40:00,
2013-06-16 20:45:00,74.2,66.9,29.83,SSW,201,2.0,3.0,78,0.00,,,0.05,Wunderground v.1.15,2013-06-17 00:45:00,
2013-06-16 20:55:00,73.7,67.1,29.83,SSW,205,2.0,2.0,80,0.00,,,0.05,Wunderground v.1.15,2013-06-17 00:55:00,
2013-06-16 21:05:00,73.3,67.1,29.83,SSW,211,2.0,2.0,81,0.00,,,0.05,Wunderground v.1.15,2013-06-17 01:05:00,
2013-06-16 21:15:00,72.8,67.0,29.83,SW,235,2.0,4.0,82,0.00,,,0.05,Wunderground v.1.15,2013-06-17 01:15:00,
2013-06-16 21:20:00,72.6,66.8,29.83,SW,215,2.0,2.0,82,0.00,,,0.05,Wunderground v.1.15,2013-06-17 01:20:00,
2013-06-16 21:25:00,72.4,66.6,29.83,SW,218,2.0,2.0,82,0.00,,,0.05,Wunderground v.1.15,2013-06-17 01:25:00,
2013-06-16 21:35:00,72.1,66.3,29.83,SW,220,1.0,2.0,82,0.00,,,0.05,Wunderground v.1.15,2013-06-17 01:35:00,
2013-06-16 21:45:00,71.7,66.3,29.84,SSW,213,1.0,2.0,83,0.00,,,0.05,Wunderground v.1.15,2013-06-17 01:45:00,
2013-06-16 21:50:00,71.5,66.1,29.84,SSW,200,1.0,2.0,83,0.00,,,0.05,Wunderground v.1.15,2013-06-17 01:50:00,
2013-06-16 22:00:00,71.3,66.2,29.84,SW,218,1.0,1.0,84,0.00,,,0.05,Wunderground v.1.15,2013-06-17 02:00:00,
2013-06-16 22:10:00,70.9,66.2,29.85,SW,217,1.0,1.0,85,0.00,,,0.05,Wunderground v.1.15,2013-06-17 02:10:00,
2013-06-16 22:15:00,70.8,66.1,29.85,SW,217,0.0,1.0,85,0.00,,,0.05,Wunderground v.1.15,2013-06-17 02:15:00,
2013-06-16 22:20:00,70.6,65.9,29.85,SW,217,0.0,0.0,85,0.00,,,0.05,Wunderground v.1.15,2013-06-17 02:20:00,
2013-06-16 22:30:00,70.3,65.9,29.85,SW,217,0.0,0.0,86,0.00,,,0.05,Wunderground v.1.15,2013-06-17 02:30:00,
2013-06-16 22:40:00,70.1,65.7,29.85,SW,217,0.0,0.0,86,0.00,,,0.05,Wunderground v.1.15,2013-06-17 02:40:00,
2013-06-16 22:45:00,69.9,65.5,29.85,SW,217,0.0,0.0,86,0.00,,,0.05,Wunderground v.1.15,2013-06-17 02:45:00,
2013-06-16 22:50:00,69.8,65.8,29.85,SW,217,0.0,0.0,87,0.00,,,0.05,Wunderground v.1.15,2013-06-17 02:50:00,
2013-06-16 23:00:00,69.5,65.5,29.85,SW,217,0.0,0.0,87,0.00,,,0.05,Wunderground v.1.15,2013-06-17 03:00:00,
2013-06-16 23:10:00,69.2,65.5,29.85,SW,217,0.0,0.0,88,0.00,,,0.05,Wunderground v.1.15,2013-06-17 03:10:00,
2013-06-16 23:20:00,69.0,65.6,29.85,SW,217,1.0,1.0,89,0.00,,,0.05,Wunderground v.1.15,2013-06-17 03:20:00,
2013-06-16 23:25:00,68.9,65.5,29.86,SW,217,1.0,1.0,89,0.00,,,0.05,Wunderground v.1.15,2013-06-17 03:25:00,
2013-06-16 23:35:00,68.6,65.2,29.85,SW,217,0.0,1.0,89,0.00,,,0.05,Wunderground v.1.15,2013-06-17 03:35:00,
2013-06-16 23:40:00,68.5,65.4,29.85,SW,217,0.0,0.0,90,0.00,,,0.05,Wunderground v.1.15,2013-06-17 03:40:00,
2013-06-16 23:50:00,68.3,65.3,29.85,SW,217,0.0,0.0,90,0.00,,,0.05,Wunderground v.1.15,2013-06-17 03:50:00,
2013-06-16 23:55:00,68.3,65.3,29.85,SW,217,0.0,0.0,90,0.00,,,0.05,Wunderground v.1.15,2013-06-17 03:55:00,